Time,TemperatureF,DewpointF,PressureIn,WindDirection,WindDirectionDegrees,WindSpeedMPH,WindSpeedGustMPH,Humidity,HourlyPrecipIn,Conditions,Clouds,dailyrainin,SoftwareType,DateUTC
2013-02-17 00:01:00,39.0,36.0,30.20,NW,311,0.0,0.0,88,0.00,,,0.14,,2013-02-17 08:01:00,
2013-02-17 00:11:00,39.0,36.0,30.20,NW,311,0.0,0.0,88,0.00,,,0.14,,2013-02-17 08:11:00,
2013-02-17 00:21:00,39.0,36.0,30.20,NW,311,0.0,0.0,89,0.00,,,0.14,,2013-02-17 08:21:00,
2013-02-17 00:31:00,39.0,36.0,30.20,NW,311,0.0,0.0,89,0.00,,,0.14,,2013-02-17 08:31:00,
2013-02-17 00:41:00,39.0,36.0,30.20,NW,311,0.0,0.0,89,0.00,,,0.14,,2013-02-17 08:41:00,
2013-02-17 00:52:00,39.0,36.0,30.20,NW,311,0.0,0.0,89,0.00,,,0.14,,2013-02-17 08:52:00,
2013-02-17 01:01:00,39.0,36.0,30.20,NW,311,0.0,0.0,89,0.00,,,0.14,,2013-02-17 09:01:00,
2013-02-17 01:11:00,39.0,36.0,30.20,NW,311,0.0,0.0,89,0.00,,,0.14,,2013-02-17 09:11:00,
2013-02-17 01:21:00,40.0,37.0,30.20,NW,311,0.0,0.0,90,0.00,,,0.14,,2013-02-17 09:21:00,
2013-02-17 01:31:00,40.0,37.0,30.20,NW,311,0.0,0.0,90,0.00,,,0.14,,2013-02-17 09:31:00,
2013-02-17 01:41:00,40.0,37.0,30.20,NW,311,0.0,0.0,90,0.00,,,0.14,,2013-02-17 09:41:00,
2013-02-17 01:52:00,40.0,37.0,30.21,NW,311,0.0,0.0,90,0.00,,,0.14,,2013-02-17 09:52:00,
2013-02-17 02:01:00,40.0,37.0,30.21,NW,311,0.0,0.0,90,0.00,,,0.14,,2013-02-17 10:01:00,
2013-02-17 02:11:00,40.0,37.0,30.21,NW,311,0.0,0.0,90,0.00,,,0.14,,2013-02-17 10:11:00,
2013-02-17 02:21:00,40.0,37.0,30.21,NW,311,0.0,0.0,90,0.00,,,0.14,,2013-02-17 10:21:00,
2013-02-17 02:31:00,40.0,37.0,30.21,NW,311,0.0,0.0,90,0.00,,,0.14,,2013-02-17 10:31:00,
2013-02-17 02:41:00,40.0,37.0,30.21,NW,311,0.0,0.0,90,0.00,,,0.14,,2013-02-17 10:41:00,
2013-02-17 02:52:00,40.0,37.0,30.21,NW,311,0.0,0.0,90,0.00,,,0.14,,2013-02-17 10:52:00,
2013-02-17 03:01:00,39.0,36.0,30.21,NW,311,0.0,0.0,90,0.00,,,0.14,,2013-02-17 11:01:00,
2013-02-17 03:11:00,39.0,36.0,30.21,NW,311,0.0,0.0,90,0.00,,,0.14,,2013-02-17 11:11:00,
2013-02-17 03:21:00,39.0,36.0,30.21,NW,311,0.0,0.0,90,0.00,,,0.14,,2013-02-17 11:21:00,
2013-02-17 03:32:00,39.0,36.0,30.21,NW,311,0.0,0.0,90,0.00,,,0.14,,2013-02-17 11:32:00,
2013-02-17 03:41:00,39.0,36.0,30.21,NW,311,0.0,0.0,90,0.00,,,0.14,,2013-02-17 11:41:00,
2013-02-17 03:52:00,39.0,36.0,30.21,NW,311,0.0,0.0,90,0.00,,,0.14,,2013-02-17 11:52:00,
2013-02-17 04:02:00,39.0,36.0,30.21,NW,311,0.0,0.0,90,0.00,,,0.14,,2013-02-17 12:02:00,
2013-02-17 04:11:00,39.0,36.0,30.21,NW,311,0.0,0.0,90,0.00,,,0.14,,2013-02-17 12:11:00,
2013-02-17 04:22:00,38.0,35.0,30.20,NW,311,0.0,0.0,90,0.00,,,0.14,,2013-02-17 12:22:00,
2013-02-17 04:31:00,38.0,35.0,30.20,NW,311,0.0,0.0,90,0.00,,,0.14,,2013-02-17 12:31:00,
2013-02-17 04:42:00,38.0,35.0,30.20,NW,311,0.0,0.0,90,0.00,,,0.14,,2013-02-17 12:42:00,
2013-02-17 04:52:00,37.0,34.0,30.20,NW,311,0.0,0.0,90,0.00,,,0.13,,2013-02-17 12:52:00,
2013-02-17 05:01:00,36.0,33.0,30.20,NW,311,0.0,0.0,90,0.00,,,0.13,,2013-02-17 13:01:00,
2013-02-17 05:11:00,36.0,33.0,30.20,NW,311,0.0,0.0,90,0.00,,,0.13,,2013-02-17 13:11:00,
2013-02-17 05:21:00,36.0,34.0,30.21,NW,311,0.0,0.0,91,0.00,,,0.13,,2013-02-17 13:21:00,
2013-02-17 05:32:00,36.0,34.0,30.21,NW,311,0.0,0.0,91,0.00,,,0.13,,2013-02-17 13:32:00,
2013-02-17 05:41:00,36.0,34.0,30.21,NW,311,0.0,0.0,91,0.00,,,0.13,,2013-02-17 13:41:00,
2013-02-17 05:52:00,36.0,34.0,30.21,NW,311,0.0,0.0,91,0.00,,,0.13,,2013-02-17 13:52:00,
2013-02-17 06:01:00,36.0,34.0,30.21,NW,311,0.0,0.0,91,0.00,,,0.13,,2013-02-17 14:01:00,
2013-02-17 06:11:00,36.0,34.0,30.21,NW,311,0.0,0.0,91,0.00,,,0.13,,2013-02-17 14:11:00,
2013-02-17 06:21:00,36.0,34.0,30.21,NW,311,0.0,0.0,91,0.00,,,0.13,,2013-02-17 14:21:00,
2013-02-17 06:32:00,36.0,34.0,30.21,NW,311,0.0,0.0,91,0.00,,,0.13,,2013-02-17 14:32:00,
2013-02-17 06:42:00,36.0,34.0,30.21,NW,311,0.0,0.0,91,0.00,,,0.13,,2013-02-17 14:42:00,
2013-02-17 06:53:00,36.0,34.0,30.20,NW,311,0.0,0.0,91,0.00,,,0.13,,2013-02-17 14:53:00,
2013-02-17 07:01:00,36.0,34.0,30.20,NW,311,0.0,0.0,91,0.00,,,0.13,,2013-02-17 15:01:00,
2013-02-17 07:11:00,36.0,34.0,30.20,NW,311,0.0,0.0,91,0.00,,,0.13,,2013-02-17 15:11:00,
2013-02-17 07:21:00,36.0,34.0,30.20,NW,311,0.0,0.0,92,0.00,,,0.13,,2013-02-17 15:21:00,
2013-02-17 07:31:00,36.0,34.0,30.20,NW,311,0.0,0.0,92,0.00,,,0.13,,2013-02-17 15:31:00,
2013-02-17 07:41:00,36.0,34.0,30.20,NW,311,0.0,0.0,92,0.00,,,0.13,,2013-02-17 15:41:00,
2013-02-17 07:52:00,37.0,35.0,30.20,NW,311,0.0,0.0,92,0.00,,,0.13,,2013-02-17 15:52:00,
2013-02-17 08:01:00,37.0,35.0,30.20,ENE,74,0.0,0.0,92,0.00,,,0.13,,2013-02-17 16:01:00,
2013-02-17 08:11:00,37.0,35.0,30.20,ENE,74,0.0,0.0,92,0.00,,,0.13,,2013-02-17 16:11:00,
2013-02-17 08:21:00,37.0,35.0,30.21,East,86,0.0,0.0,92,0.00,,,0.13,,2013-02-17 16:21:00,
2013-02-17 08:31:00,37.0,35.0,30.21,East,86,0.0,0.0,92,0.00,,,0.13,,2013-02-17 16:31:00,
2013-02-17 08:41:00,37.0,35.0,30.21,East,86,0.0,0.0,92,0.00,,,0.13,,2013-02-17 16:41:00,
2013-02-17 08:52:00,37.0,35.0,30.21,East,86,0.0,0.0,92,0.00,,,0.13,,2013-02-17 16:52:00,
2013-02-17 09:02:00,37.0,35.0,30.21,SE,131,0.0,0.0,92,0.00,,,0.13,,2013-02-17 17:02:00,
2013-02-17 09:11:00,37.0,35.0,30.21,SE,131,0.0,0.0,92,0.00,,,0.13,,2013-02-17 17:11:00,
2013-02-17 09:21:00,38.0,36.0,30.21,East,100,0.0,0.0,92,0.00,,,0.13,,2013-02-17 17:21:00,
2013-02-17 09:31:00,38.0,36.0,30.21,ESE,119,0.0,0.0,92,0.00,,,0.13,,2013-02-17 17:31:00,
2013-02-17 09:41:00,38.0,36.0,30.21,ESE,119,0.0,0.0,92,0.00,,,0.13,,2013-02-17 17:41:00,
2013-02-17 09:52:00,39.0,37.0,30.21,SE,131,0.0,0.0,92,0.00,,,0.13,,2013-02-17 17:52:00,
2013-02-17 10:01:00,40.0,38.0,30.21,SE,145,0.0,0.0,92,0.00,,,0.13,,2013-02-17 18:01:00,
2013-02-17 10:11:00,40.0,38.0,30.21,SE,145,0.0,0.0,92,0.00,,,0.13,,2013-02-17 18:11:00,
2013-02-17 10:21:00,40.0,38.0,30.21,SSE,148,0.0,0.0,91,0.00,,,0.13,,2013-02-17 18:21:00,
2013-02-17 10:33:00,41.0,37.0,30.21,SE,134,0.0,0.0,87,0.00,,,0.13,,2013-02-17 18:33:00,
2013-02-17 10:42:00,41.0,37.0,30.21,SE,134,0.0,0.0,87,0.00,,,0.13,,2013-02-17 18:42:00,
2013-02-17 10:52:00,41.0,36.0,30.20,SSW,194,0.0,0.0,81,0.00,,,0.12,,2013-02-17 18:52:00,
2013-02-17 11:01:00,42.0,35.0,30.20,SSW,194,0.0,0.0,77,0.00,,,0.12,,2013-02-17 19:01:00,
2013-02-17 11:11:00,42.0,35.0,30.20,SSW,194,0.0,0.0,77,0.00,,,0.12,,2013-02-17 19:11:00,
2013-02-17 11:21:00,42.0,35.0,30.19,SW,217,0.0,0.0,75,0.00,,,0.12,,2013-02-17 19:21:00,
2013-02-17 11:31:00,43.0,36.0,30.20,SSW,198,0.0,0.0,75,0.00,,,0.12,,2013-02-17 19:31:00,
2013-02-17 11:41:00,43.0,36.0,30.20,SSW,198,0.0,0.0,75,0.00,,,0.12,,2013-02-17 19:41:00,
2013-02-17 11:52:00,43.0,36.0,30.19,West,274,0.0,0.0,75,0.00,,,0.12,,2013-02-17 19:52:00,
2013-02-17 12:01:00,43.0,36.0,30.19,SW,233,0.0,0.0,75,0.00,,,0.12,,2013-02-17 20:01:00,
2013-02-17 12:11:00,43.0,36.0,30.19,SW,233,0.0,0.0,75,0.00,,,0.12,,2013-02-17 20:11:00,
2013-02-17 12:21:00,44.0,35.0,30.19,SW,216,0.0,0.0,70,0.00,,,0.12,,2013-02-17 20:21:00,
2013-02-17 12:31:00,44.0,34.0,30.19,ESE,122,0.0,0.0,67,0.00,,,0.12,,2013-02-17 20:31:00,
2013-02-17 12:42:00,44.0,34.0,30.19,ESE,122,0.0,0.0,67,0.00,,,0.12,,2013-02-17 20:42:00,
2013-02-17 12:52:00,44.0,33.0,30.18,South,174,0.0,0.0,64,0.00,,,0.12,,2013-02-17 20:52:00,
2013-02-17 13:01:00,44.0,33.0,30.18,South,174,0.0,0.0,64,0.00,,,0.12,,2013-02-17 21:01:00,
2013-02-17 13:11:00,44.0,33.0,30.18,South,174,0.0,0.0,64,0.00,,,0.12,,2013-02-17 21:11:00,
2013-02-17 13:21:00,44.0,33.0,30.17,WSW,238,0.0,0.0,65,0.00,,,0.12,,2013-02-17 21:21:00,
2013-02-17 13:31:00,44.0,33.0,30.17,South,186,0.0,0.0,66,0.00,,,0.12,,2013-02-17 21:31:00,
2013-02-17 13:41:00,44.0,33.0,30.17,South,186,0.0,0.0,66,0.00,,,0.12,,2013-02-17 21:41:00,
2013-02-17 14:01:00,45.0,33.0,30.16,South,186,0.0,0.0,62,0.00,,,0.12,,2013-02-17 22:01:00,
2013-02-17 14:11:00,45.0,33.0,30.16,South,186,0.0,0.0,62,0.00,,,0.12,,2013-02-17 22:11:00,
2013-02-17 14:21:00,45.0,32.0,30.15,North,0,0.0,0.0,60,0.00,,,0.12,,2013-02-17 22:21:00,
2013-02-17 14:32:00,45.0,31.0,30.15,North,0,0.0,0.0,58,0.00,,,0.12,,2013-02-17 22:32:00,
2013-02-17 14:41:00,45.0,31.0,30.15,North,0,0.0,0.0,58,0.00,,,0.12,,2013-02-17 22:41:00,
2013-02-17 14:52:00,45.0,29.0,30.14,North,349,0.0,0.0,54,0.00,,,0.12,,2013-02-17 22:52:00,
2013-02-17 15:01:00,45.0,28.0,30.14,North,349,0.0,0.0,52,0.00,,,0.11,,2013-02-17 23:01:00,
2013-02-17 15:11:00,45.0,28.0,30.14,North,349,0.0,0.0,52,0.00,,,0.11,,2013-02-17 23:11:00,
2013-02-17 15:21:00,45.0,27.0,30.14,ENE,64,0.0,0.0,50,0.00,,,0.04,,2013-02-17 23:21:00,
2013-02-17 15:31:00,45.0,27.0,30.14,ENE,64,0.0,0.0,50,0.00,,,0.04,,2013-02-17 23:31:00,
2013-02-17 15:41:00,45.0,27.0,30.14,ENE,64,0.0,0.0,50,0.00,,,0.04,,2013-02-17 23:41:00,
2013-02-17 15:52:00,45.0,27.0,30.13,NE,39,0.0,0.0,50,0.00,,,0.02,,2013-02-17 23:52:00,
2013-02-17 16:01:00,45.0,28.0,30.13,NE,39,0.0,0.0,52,0.00,,,0.02,,2013-02-18 00:01:00,
2013-02-17 16:11:00,45.0,28.0,30.13,NE,39,0.0,0.0,52,0.00,,,0.02,,2013-02-18 00:11:00,
2013-02-17 16:22:00,45.0,28.0,30.12,North,2,0.0,0.0,51,0.00,,,0.02,,2013-02-18 00:22:00,
2013-02-17 16:31:00,45.0,29.0,30.12,NNW,337,0.0,0.0,53,0.00,,,0.02,,2013-02-18 00:31:00,
2013-02-17 16:41:00,45.0,29.0,30.12,NNW,337,0.0,0.0,53,0.00,,,0.02,,2013-02-18 00:41:00,
2013-02-17 16:52:00,45.0,29.0,30.11,NNW,337,0.0,0.0,53,0.00,,,0.00,,2013-02-18 00:52:00,
2013-02-17 17:01:00,45.0,28.0,30.11,NE,45,0.0,0.0,52,0.00,,,0.00,,2013-02-18 01:01:00,
2013-02-17 17:11:00,45.0,28.0,30.11,NE,45,0.0,0.0,52,0.00,,,0.00,,2013-02-18 01:11:00,
2013-02-17 17:21:00,45.0,28.0,30.10,NE,53,0.0,0.0,52,0.00,,,0.00,,2013-02-18 01:21:00,
2013-02-17 17:31:00,45.0,30.0,30.10,NE,54,0.0,0.0,55,0.00,,,0.00,,2013-02-18 01:31:00,
2013-02-17 17:41:00,45.0,30.0,30.10,NE,54,0.0,0.0,55,0.00,,,0.00,,2013-02-18 01:41:00,
2013-02-17 17:51:00,44.0,30.0,30.09,SE,142,0.0,0.0,58,0.00,,,0.00,,2013-02-18 01:51:00,
2013-02-17 18:01:00,44.0,30.0,30.09,NE,51,0.0,0.0,58,0.00,,,0.00,,2013-02-18 02:01:00,
2013-02-17 18:11:00,44.0,30.0,30.09,NE,51,0.0,0.0,58,0.00,,,0.00,,2013-02-18 02:11:00,
2013-02-17 18:21:00,43.0,30.0,30.09,NNE,25,0.0,0.0,60,0.00,,,0.00,,2013-02-18 02:21:00,
2013-02-17 18:31:00,43.0,30.0,30.09,NNE,25,0.0,0.0,61,0.00,,,0.00,,2013-02-18 02:31:00,
2013-02-17 18:41:00,43.0,30.0,30.09,NNE,25,0.0,0.0,61,0.00,,,0.00,,2013-02-18 02:41:00,
2013-02-17 18:52:00,43.0,31.0,30.07,East,98,0.0,0.0,63,0.00,,,0.00,,2013-02-18 02:52:00,
2013-02-17 19:01:00,42.0,31.0,30.07,SSE,153,0.0,0.0,65,0.00,,,0.00,,2013-02-18 03:01:00,
2013-02-17 19:11:00,42.0,31.0,30.07,SSE,153,0.0,0.0,65,0.00,,,0.00,,2013-02-18 03:11:00,
2013-02-17 19:21:00,42.0,33.0,30.07,SE,130,0.0,0.0,70,0.00,,,0.00,,2013-02-18 03:21:00,
2013-02-17 19:31:00,41.0,33.0,30.07,ENE,75,0.0,0.0,73,0.00,,,0.00,,2013-02-18 03:31:00,
2013-02-17 19:42:00,41.0,33.0,30.07,ENE,75,0.0,0.0,73,0.00,,,0.00,,2013-02-18 03:42:00,
2013-02-17 19:52:00,41.0,32.0,30.06,NNE,12,0.0,0.0,71,0.00,,,0.00,,2013-02-18 03:52:00,
2013-02-17 20:01:00,41.0,32.0,30.06,NNE,12,0.0,0.0,70,0.00,,,0.00,,2013-02-18 04:01:00,
2013-02-17 20:11:00,41.0,32.0,30.06,NNE,12,0.0,0.0,70,0.00,,,0.00,,2013-02-18 04:11:00,
2013-02-17 20:21:00,40.0,32.0,30.06,NNE,12,0.0,0.0,72,0.00,,,0.00,,2013-02-18 04:21:00,
2013-02-17 20:32:00,40.0,32.0,30.06,NNE,12,0.0,0.0,73,0.00,,,0.00,,2013-02-18 04:32:00,
2013-02-17 20:41:00,40.0,32.0,30.06,NNE,12,0.0,0.0,73,0.00,,,0.00,,2013-02-18 04:41:00,
2013-02-17 20:52:00,38.0,31.0,30.05,NNE,12,0.0,0.0,77,0.00,,,0.00,,2013-02-18 04:52:00,
2013-02-17 21:01:00,38.0,32.0,30.05,NNE,12,0.0,0.0,78,0.00,,,0.00,,2013-02-18 05:01:00,
2013-02-17 21:11:00,38.0,32.0,30.05,NNE,12,0.0,0.0,78,0.00,,,0.00,,2013-02-18 05:11:00,
2013-02-17 21:21:00,38.0,33.0,30.04,NNE,12,0.0,0.0,81,0.00,,,0.00,,2013-02-18 05:21:00,
2013-02-17 21:31:00,37.0,32.0,30.04,NNE,12,0.0,0.0,82,0.00,,,0.00,,2013-02-18 05:31:00,
2013-02-17 21:41:00,37.0,32.0,30.04,NNE,12,0.0,0.0,82,0.00,,,0.00,,2013-02-18 05:41:00,
2013-02-17 21:52:00,37.0,33.0,30.04,East,91,0.0,0.0,84,0.00,,,0.00,,2013-02-18 05:52:00,
2013-02-17 22:01:00,37.0,33.0,30.04,East,91,0.0,0.0,84,0.00,,,0.00,,2013-02-18 06:01:00,
2013-02-17 22:11:00,37.0,33.0,30.04,East,91,0.0,0.0,84,0.00,,,0.00,,2013-02-18 06:11:00,
2013-02-17 22:21:00,37.0,33.0,30.03,East,82,0.0,0.0,85,0.00,,,0.00,,2013-02-18 06:21:00,
2013-02-17 22:31:00,36.0,32.0,30.03,East,82,0.0,0.0,85,0.00,,,0.00,,2013-02-18 06:31:00,
2013-02-17 22:41:00,36.0,32.0,30.03,East,82,0.0,0.0,85,0.00,,,0.00,,2013-02-18 06:41:00,
2013-02-17 22:52:00,35.0,31.0,30.03,East,82,0.0,0.0,85,0.00,,,0.00,,2013-02-18 06:52:00,
2013-02-17 23:01:00,35.0,31.0,30.03,East,82,0.0,0.0,85,0.00,,,0.00,,2013-02-18 07:01:00,
2013-02-17 23:11:00,35.0,31.0,30.03,East,82,0.0,0.0,85,0.00,,,0.00,,2013-02-18 07:11:00,
2013-02-17 23:21:00,35.0,31.0,30.02,East,82,0.0,0.0,86,0.00,,,0.00,,2013-02-18 07:21:00,
2013-02-17 23:31:00,35.0,32.0,30.02,East,82,0.0,0.0,87,0.00,,,0.00,,2013-02-18 07:31:00,
2013-02-17 23:42:00,35.0,32.0,30.02,East,82,0.0,0.0,87,0.00,,,0.00,,2013-02-18 07:42:00,
2013-02-17 23:52:00,36.0,33.0,30.01,East,82,0.0,0.0,87,0.00,,,0.00,,2013-02-18 07:52:00,